GW5131 Weather Reports


Display with metric or nautical units.
time (UTC)temp
F
wind
direction
speed
MPH
gust
MPH
rain 1hr
in
rain 24hr
in
rain mn
in
humidity
%
barometer
mb
20260506082304 57 171 0.0 0.0 0.00 0.00 0.00 94 972.6
20260506081759 57 171 0.0 1.0 0.00 0.00 0.00 94 972.7
20260506081256 57 171 0.0 0.0 0.00 0.00 0.00 94 972.5
20260506080754 57 171 0.0 1.0 0.00 0.00 0.00 92 972.5
20260506080250 57 171 0.0 0.0 0.00 0.00 0.00 94 972.5
20260506073234 57 171 0.0 0.0 0.00 0.00 0.00 93 972.3
20260506072731 56 171 0.0 0.0 0.00 0.00 0.00 94 972.5
20260506072229 56 171 0.0 0.0 0.00 0.00 0.00 94 972.3
20260506071726 56 171 0.0 1.0 0.00 0.00 0.00 94 972.2
20260506071224 56 171 0.0 0.0 0.00 0.00 0.00 94 972.2
20260506070721 56 171 0.0 0.0 0.00 0.00 0.00 94 972.5
20260506070218 56 171 0.0 1.0 0.00 0.00 0.00 94 972.4
20260506062155 57 171 0.0 0.0 0.00 0.00 0.00 93 972.7
20260506061651 57 171 0.0 0.0 0.00 0.00 0.00 93 972.7
20260506061148 56 171 0.0 0.0 0.00 0.00 0.00 92 973.0
20260506060646 57 171 0.0 0.0 0.00 0.00 0.00 92 973.3
20260506060143 57 171 0.0 0.0 0.00 0.00 0.00 92 972.9
20260506051115 58 171 0.0 0.0 0.00 0.00 0.00 88 973.7
20260506050614 58 171 0.0 0.0 0.00 0.00 0.00 90 973.6
20260506050111 58 171 0.0 0.0 0.00 0.00 0.00 88 973.8
20260506045104 58 171 0.0 0.0 0.00 0.00 0.00 88 974.1
20260506044602 58 171 0.0 0.0 0.00 0.00 0.00 89 974.1
20260506044058 58 171 0.0 0.0 0.00 0.00 0.00 88 974.1
20260506043555 58 171 0.0 1.0 0.00 0.00 0.00 86 974.2
20260506043054 58 171 0.0 0.0 0.00 0.00 0.00 88 974.2
20260506042553 58 171 0.0 0.0 0.00 0.00 0.00 87 974.3
20260506042050 58 171 0.0 0.0 0.00 0.00 0.00 88 974.3
20260506041549 58 171 0.0 0.0 0.00 0.00 0.00 87 974.2
20260506041044 58 171 0.0 0.0 0.00 0.00 0.00 87 974.2
20260506040543 59 171 0.0 0.0 0.00 0.00 0.00 87 974.1
20260506040038 58 171 0.0 0.0 0.00 0.00 0.00 83 974.1
20260506035536 58 171 0.0 0.0 0.00 0.00 0.00 88 973.9
20260506035032 59 171 0.0 0.0 0.00 0.00 0.00 87 973.9
20260506034530 59 171 0.0 0.0 0.00 0.00 0.00 86 973.9
20260506034026 59 171 0.0 0.0 0.00 0.00 0.00 88 973.8
20260506033524 59 171 0.0 1.0 0.00 0.00 0.00 87 973.8
20260506033021 59 171 0.0 0.0 0.00 0.00 0.00 81 973.8
20260506032518 59 171 0.0 0.0 0.00 0.00 0.00 85 973.8
20260506032015 59 171 0.0 0.0 0.00 0.00 0.00 85 973.7
20260506031513 59 171 0.0 0.0 0.00 0.00 0.00 84 973.7
20260506031009 59 171 0.0 0.0 0.00 0.00 0.00 84 973.8
20260506030507 59 171 0.0 0.0 0.00 0.00 0.00 85 973.7
20260506030004 59 171 0.0 0.0 0.00 0.00 0.00 86 973.9
20260506025501 60 171 0.0 0.0 0.00 0.00 0.00 85 973.8
20260506024957 60 171 0.0 0.0 0.00 0.00 0.00 85 974.1
20260506024454 60 171 0.0 0.0 0.00 0.00 0.00 83 973.8
20260506023950 60 171 0.0 0.0 0.00 0.00 0.00 84 973.8
20260506023447 60 171 0.0 0.0 0.00 0.00 0.00 83 974.0
20260506022943 60 171 0.0 1.0 0.00 0.00 0.00 84 974.2
20260506022441 60 171 0.0 0.0 0.00 0.00 0.00 85 974.1
20260506021940 60 171 0.0 0.0 0.00 0.00 0.00 79 974.3
20260506021436 60 171 0.0 0.0 0.00 0.00 0.00 82 974.5
20260506020933 60 171 0.0 0.0 0.00 0.00 0.00 80 974.3
20260506020431 61 171 0.0 0.0 0.00 0.00 0.00 83 974.3
20260506015928 60 171 0.0 1.0 0.00 0.00 0.00 80 974.3
20260506015426 61 171 1.0 1.0 0.00 0.00 0.00 82 974.3
20260506014922 60 171 1.0 2.0 0.00 0.00 0.00 78 974.1
20260506014419 61 171 0.0 1.0 0.00 0.00 0.00 81 974.3
20260506013916 61 171 1.0 1.0 0.00 0.00 0.00 76 974.3
20260506013414 61 171 0.0 0.0 0.00 0.00 0.00 79 974.4
20260506012910 61 171 0.0 0.0 0.00 0.00 0.00 80 974.5
20260506012407 61 171 0.0 0.0 0.00 0.00 0.00 81 974.6
20260506011904 61 171 0.0 0.0 0.00 0.00 0.00 79 974.6
20260506011401 62 171 0.0 0.0 0.00 0.00 0.00 76 974.5
20260506010858 62 171 0.0 0.0 0.00 0.00 0.00 75 974.8
20260506010356 62 171 0.0 1.0 0.00 0.00 0.00 71 974.5
20260506005852 62 171 0.0 0.0 0.00 0.00 0.00 73 974.7
20260506005349 62 171 0.0 0.0 0.00 0.00 0.00 75 974.8
20260506004845 62 171 0.0 1.0 0.00 0.00 0.00 74 974.7
20260506004343 63 171 0.0 0.0 0.00 0.00 0.00 77 974.4
20260506003839 63 171 0.0 0.0 0.00 0.00 0.00 71 974.5
20260506003335 63 171 0.0 0.0 0.00 0.00 0.00 71 974.4
20260506002831 64 171 0.0 0.0 0.00 0.00 0.00 74 974.4
20260506002328 64 171 0.0 0.0 0.00 0.00 0.00 69 974.3
20260506001823 64 171 0.0 0.0 0.00 0.00 0.00 70 974.3
20260506001322 65 171 0.0 0.0 0.00 0.00 0.00 63 974.4
20260506000818 65 171 1.0 1.0 0.00 0.00 0.00 66 974.4
20260506000316 66 171 0.0 0.0 0.00 0.00 0.00 68 974.4
20260505235813 66 171 0.0 0.0 0.00 0.00 0.00 62 974.5
20260505235310 66 171 0.0 0.0 0.00 0.00 0.00 60 974.3
20260505234807 67 171 1.0 1.0 0.00 0.00 0.00 64 974.3
20260505234305 68 171 0.0 0.0 0.00 0.00 0.00 61 974.2
20260505233802 68 171 0.0 1.0 0.00 0.00 0.00 56 973.9
20260505233259 69 171 0.0 1.0 0.00 0.00 0.00 57 974.2
20260505232756 69 171 1.0 1.0 0.00 0.00 0.00 56 974.3
20260505232253 70 171 0.0 0.0 0.00 0.00 0.00 55 974.4
20260505231749 71 171 1.0 1.0 0.00 0.00 0.00 55 974.4
20260505231248 71 171 0.0 1.0 0.00 0.00 0.00 45 974.3
20260505230746 72 166 0.0 2.0 0.00 0.00 0.00 44 974.3
20260505230242 72 187 0.0 1.0 0.00 0.00 0.00 45 974.4
20260505225739 73 187 0.0 1.0 0.00 0.00 0.00 43 974.2
20260505225236 73 187 0.0 2.0 0.00 0.00 0.00 44 974.3
20260505224731 73 104 0.0 1.0 0.00 0.00 0.00 43 974.3
20260505224229 73 103 1.0 2.0 0.00 0.00 0.00 41 974.3
20260505223727 73 78 1.0 3.0 0.00 0.00 0.00 47 974.3
20260505223223 74 82 2.0 3.0 0.00 0.00 0.00 44 974.2
20260505222719 75 108 2.0 2.0 0.00 0.00 0.00 42 974.2
20260505222216 75 93 0.0 3.0 0.00 0.00 0.00 40 974.4
20260505221713 75 212 1.0 2.0 0.00 0.00 0.00 40 974.4
20260505221210 75 109 6.0 7.0 0.00 0.00 0.00 39 974.3
20260505220707 76 127 1.0 2.0 0.00 0.00 0.00 39 974.6
20260505220204 75 71 0.0 1.0 0.00 0.00 0.00 42 974.7
20260505215702 75 320 4.0 7.0 0.00 0.00 0.00 39 974.7
20260505215159 75 234 1.0 3.0 0.00 0.00 0.00 40 974.9
20260505214657 75 79 1.0 3.0 0.00 0.00 0.00 46 974.6
20260505214154 76 153 2.0 3.0 0.00 0.00 0.00 39 974.9
20260505213651 75 77 2.0 3.0 0.00 0.00 0.00 42 974.7
20260505213148 74 254 3.0 8.0 0.00 0.00 0.00 40 974.8
20260505212643 75 99 2.0 2.0 0.00 0.00 0.00 41 974.7
20260505212142 75 280 5.0 6.0 0.00 0.00 0.00 39 975.0
20260505211638 75 108 1.0 2.0 0.00 0.00 0.00 42 975.0
20260505211136 75 108 2.0 4.0 0.00 0.00 0.00 39 975.0
20260505210632 75 235 2.0 4.0 0.00 0.00 0.00 38 975.1
20260505210129 75 69 2.0 6.0 0.00 0.00 0.00 40 975.2
20260505205627 76 275 2.0 3.0 0.00 0.00 0.00 38 975.0
20260505205125 76 274 3.0 6.0 0.00 0.00 0.00 37 974.9
20260505204621 76 349 2.0 8.0 0.00 0.00 0.00 36 974.9
20260505204119 76 95 1.0 7.0 0.00 0.00 0.00 41 975.0
20260505203615 76 191 2.0 15.0 0.00 0.00 0.00 37 974.9
20260505203113 76 105 4.0 4.0 0.00 0.00 0.00 43 974.9
20260505202608 76 48 2.0 6.0 0.00 0.00 0.00 40 974.9
20260505202105 76 110 5.0 8.0 0.00 0.00 0.00 39 975.1
20260505201601 76 214 5.0 9.0 0.00 0.00 0.00 38 975.2
20260505201059 76 124 2.0 14.0 0.00 0.00 0.00 41 975.1
20260505200556 76 133 4.0 8.0 0.00 0.00 0.00 39 975.2
20260505200053 76 158 2.0 6.0 0.00 0.00 0.00 38 975.1
20260505195549 76 114 1.0 3.0 0.00 0.00 0.00 40 975.2
20260505195047 76 254 5.0 9.0 0.00 0.00 0.00 38 975.3
20260505194544 76 236 2.0 4.0 0.00 0.00 0.00 40 975.4
20260505194039 76 358 2.0 6.0 0.00 0.00 0.00 38 975.3
20260505193537 76 115 4.0 4.0 0.00 0.00 0.00 43 975.3
20260505193034 76 341 3.0 3.0 0.00 0.00 0.00 41 975.3
20260505192532 76 0 1.0 7.0 0.00 0.00 0.00 40 975.4
20260505192030 76 255 1.0 3.0 0.00 0.00 0.00 42 975.4
20260505191528 75 356 1.0 3.0 0.00 0.00 0.00 44 975.3
20260505191025 76 246 4.0 6.0 0.00 0.00 0.00 40 975.4
20260505190520 76 123 6.0 9.0 0.00 0.00 0.00 40 975.7
20260505190016 76 197 4.0 7.0 0.00 0.00 0.00 41 975.7
20260505185513 76 158 2.0 10.0 0.00 0.00 0.00 40 975.6
20260505185009 76 6 1.0 8.0 0.00 0.00 0.00 41 975.6
20260505184507 76 149 11.0 17.0 0.00 0.00 0.00 38 975.9
20260505184003 76 148 1.0 7.0 0.00 0.00 0.00 41 975.7
20260505183500 76 171 3.0 10.0 0.00 0.00 0.00 42 975.8
20260505182956 76 221 4.0 6.0 0.00 0.00 0.00 43 975.8
20260505182453 76 140 6.0 11.0 0.00 0.00 0.00 39 976.0
20260505181949 75 227 9.0 13.0 0.00 0.00 0.00 41 975.8
20260505181447 75 108 4.0 6.0 0.00 0.00 0.00 43 975.8
20260505180944 75 123 6.0 11.0 0.00 0.00 0.00 44 976.0
20260505180440 75 90 4.0 13.0 0.00 0.00 0.00 41 975.9
20260505175937 76 52 4.0 7.0 0.00 0.00 0.00 39 975.9
20260505175433 76 86 2.0 4.0 0.00 0.00 0.00 42 975.8
20260505174930 76 54 3.0 6.0 0.00 0.00 0.00 40 975.9
20260505174427 76 120 4.0 7.0 0.00 0.00 0.00 42 976.0
20260505173923 76 7 7.0 9.0 0.00 0.00 0.00 42 976.0
20260505173420 76 111 2.0 9.0 0.00 0.00 0.00 40 976.0
20260505172917 75 214 6.0 10.0 0.00 0.00 0.00 41 976.1
20260505172415 75 106 2.0 8.0 0.00 0.00 0.00 45 976.2
20260505171914 76 124 3.0 9.0 0.00 0.00 0.00 41 976.1
20260505171411 76 98 7.0 10.0 0.00 0.00 0.00 43 976.3
20260505170908 76 68 6.0 8.0 0.00 0.00 0.00 42 976.1
20260505170405 75 115 6.0 11.0 0.00 0.00 0.00 44 976.3
20260505165900 75 126 7.0 10.0 0.00 0.00 0.00 44 976.4
20260505165356 74 163 3.0 7.0 0.00 0.00 0.00 46 976.7
20260505164852 75 146 6.0 15.0 0.00 0.00 0.00 43 976.6
20260505164348 75 123 7.0 9.0 0.00 0.00 0.00 44 976.7
20260505163847 75 235 6.0 14.0 0.00 0.00 0.00 42 976.6
20260505163345 75 192 7.0 11.0 0.00 0.00 0.00 43 976.5
20260505162843 75 107 2.0 2.0 0.00 0.00 0.00 44 976.6
20260505162339 74 73 5.0 11.0 0.00 0.00 0.00 46 976.9
20260505161837 75 193 5.0 9.0 0.00 0.00 0.00 42 977.0
20260505161333 75 72 5.0 8.0 0.00 0.00 0.00 45 977.1
20260505160831 75 109 5.0 11.0 0.00 0.00 0.00 45 977.0
20260505160329 74 151 7.0 13.0 0.00 0.00 0.00 43 977.1
20260505153308 74 127 3.0 4.0 0.00 0.00 0.00 47 977.0
20260505152805 74 105 2.0 6.0 0.00 0.00 0.00 45 977.1
20260505152305 74 135 8.0 13.0 0.00 0.00 0.00 48 977.3
20260505151801 74 237 5.0 8.0 0.00 0.00 0.00 46 977.1
20260505151259 73 30 2.0 8.0 0.00 0.00 0.00 49 977.0
20260505150756 73 106 5.0 9.0 0.00 0.00 0.00 47 977.2
20260505150253 73 325 2.0 6.0 0.00 0.00 0.00 45 977.2
20260505140217 71 113 1.0 4.0 0.00 0.00 0.00 53 977.3
20260505130141 70 113 2.0 4.0 0.00 0.00 0.00 52 977.3
20260505124630 68 95 2.0 8.0 0.00 0.00 0.00 55 977.3
20260505124127 68 117 2.0 4.0 0.00 0.00 0.00 57 977.2
20260505123623 68 95 1.0 4.0 0.00 0.00 0.00 58 977.1
20260505123120 68 125 1.0 3.0 0.00 0.00 0.00 55 977.2
20260505122617 67 96 1.0 4.0 0.00 0.00 0.00 57 977.3
20260505122115 66 96 1.0 4.0 0.00 0.00 0.00 60 977.3
20260505121611 64 104 2.0 3.0 0.00 0.00 0.00 64 977.5
20260505121108 63 200 4.0 4.0 0.00 0.00 0.00 62 977.5
20260505120604 64 237 0.0 2.0 0.00 0.00 0.00 68 977.3
20260505120100 64 265 1.0 2.0 0.00 0.00 0.00 70 977.3
20260505115600 62 323 1.0 1.0 0.00 0.00 0.00 72 977.3
20260505115057 62 252 0.0 1.0 0.00 0.00 0.00 71 977.2
20260505114555 62 257 0.0 0.0 0.00 0.00 0.00 73 977.3
20260505114050 62 256 0.0 1.0 0.00 0.00 0.00 72 977.3
20260505113547 61 243 0.0 2.0 0.00 0.00 0.00 75 977.3
20260505113044 60 173 0.0 1.0 0.00 0.00 0.00 78 977.5
20260505112540 60 173 2.0 3.0 0.00 0.00 0.00 69 977.3
20260505112039 56 279 1.0 4.0 0.00 0.00 0.00 81 977.5
20260505111538 56 182 0.0 1.0 0.00 0.00 0.00 88 977.1
20260505111034 55 182 0.0 0.0 0.00 0.00 0.00 90 977.2
20260505110531 55 181 0.0 1.0 0.00 0.00 0.00 88 977.5
20260505102003 47 181 0.0 0.0 0.00 0.00 0.00 99 976.9
20260505101501 47 182 0.0 0.0 0.00 0.00 0.00 99 976.7
20260505100957 46 182 0.0 1.0 0.00 0.00 0.00 99 976.5
20260505100455 46 182 0.0 0.0 0.00 0.00 0.00 99 976.6
20260505095951 46 181 0.0 0.0 0.00 0.00 0.00 99 976.6
20260505095447 45 182 0.0 0.0 0.00 0.00 0.00 99 976.2
20260505094943 46 181 0.0 0.0 0.00 0.00 0.00 99 976.3
20260505094440 45 182 0.0 1.0 0.00 0.00 0.00 99 976.3
20260505093937 45 182 0.0 0.0 0.00 0.00 0.00 99 976.4
20260505093433 45 182 0.0 0.0 0.00 0.00 0.00 99 976.5
20260505092931 45 182 0.0 0.0 0.00 0.00 0.00 99 976.3
20260505092429 45 182 0.0 0.0 0.00 0.00 0.00 99 976.4
20260505091926 44 181 0.0 0.0 0.00 0.00 0.00 99 976.1
20260505091423 45 182 0.0 1.0 0.00 0.00 0.00 99 976.4
20260505090921 45 181 0.0 0.0 0.00 0.00 0.00 99 976.2
20260505090419 45 182 0.0 0.0 0.00 0.00 0.00 99 976.1
20260505085916 45 182 0.0 0.0 0.00 0.00 0.00 99 976.1
20260505085414 45 182 0.0 1.0 0.00 0.00 0.00 99 976.0
20260505084912 45 181 0.0 1.0 0.00 0.00 0.00 99 976.1
20260505084410 45 182 0.0 0.0 0.00 0.00 0.00 99 976.0
20260505083908 45 182 0.0 1.0 0.00 0.00 0.00 99 976.0
20260505083405 46 181 1.0 1.0 0.00 0.00 0.00 99 975.9
20260505082901 45 198 0.0 0.0 0.00 0.00 0.00 99 976.1